Theta_e
312 311 309 308 307 307 308 309 308 309 310 310 310 312 312 312 312 311 311 316 313 306 305 305 310 317 318 318 318 317 313 316 318 319 322 320 322 327 332 347 347 348 348 351 352
310 310 310 309 309 308 308 309 308 308 309 310 310 311 311 312 312 313 315 315 314 308 305 307 308 314 317 318 318 314 312 314 316 318 321 319 323 324 330 341 346 350 350 352 351
310 310 310 309 309 309 309 309 309 308 308 309 309 310 311 311 311 315 314 313 310 307 305 309 310 313 317 317 317 313 314 315 317 319 320 319 323 325 325 328 341 349 351 351 350
309 309 309 309 309 309 309 308 307 307 308 308 309 309 310 311 311 312 312 310 312 306 305 310 312 314 314 314 316 316 315 316 318 320 320 319 324 325 325 326 345 350 351 351 350
306 307 308 309 309 308 308 308 307 308 307 307 308 308 310 311 311 313 313 312 311 306 306 309 312 314 314 314 315 316 316 318 319 320 320 320 321 325 326 327 345 350 351 350 350
305 304 306 307 307 307 307 307 307 307 307 308 308 308 310 312 313 313 311 311 311 306 305 310 312 315 315 315 315 315 316 317 318 320 320 319 321 326 327 327 344 347 348 347 346
304 304 305 306 306 306 306 306 307 307 307 308 307 309 309 311 313 312 314 316 312 306 306 310 312 315 315 312 317 314 317 315 315 317 318 320 321 324 327 327 327 329 334 339 338
306 305 304 306 306 305 305 306 306 307 305 308 308 309 311 310 312 314 313 312 314 309 307 310 310 312 313 314 313 313 314 317 317 316 318 320 321 322 327 327 327 327 327 327 327
305 305 305 304 304 304 305 305 305 305 305 306 308 311 312 311 312 314 313 311 314 308 310 308 310 310 310 308 310 311 313 313 318 315 319 319 320 319 326 326 326 326 327 327 327
301 302 304 303 304 303 303 304 304 306 305 307 308 311 311 312 314 312 312 312 313 311 310 309 309 306 304 307 312 311 312 312 316 315 319 323 325 324 326 327 327 326 327 327 327
299 299 300 301 301 303 303 302 307 309 307 308 310 309 314 313 315 314 312 314 314 313 310 309 305 308 309 308 310 310 310 313 313 316 319 321 325 325 325 325 325 324 325 326 327
299 299 299 299 300 300 300 305 304 308 310 311 310 311 311 313 313 314 313 315 313 314 310 307 306 305 307 309 311 311 311 312 314 315 320 322 325 325 324 323 325 326 326 326 327
298 299 299 298 299 299 307 306 310 308 310 312 312 311 312 312 312 314 314 314 314 315 309 308 308 306 308 309 310 310 310 312 315 319 322 320 323 324 324 325 324 325 326 326 327
298 299 299 301 301 304 302 304 305 309 312 312 311 312 312 313 313 315 312 314 314 315 309 309 309 308 307 309 309 311 311 312 314 317 319 322 321 321 324 324 323 324 324 326 326
298 299 300 303 304 303 301 307 310 310 316 314 313 314 313 315 316 316 312 313 312 311 310 311 308 308 308 309 310 311 311 312 313 315 318 320 320 317 319 324 323 324 324 323 324
299 299 303 303 303 302 302 304 308 315 317 319 316 315 316 317 317 316 313 313 313 310 310 309 309 308 308 310 311 311 312 312 310 311 313 313 321 319 316 319 321 322 325 325 322
299 303 310 308 304 304 304 307 314 316 315 316 319 317 318 318 317 315 312 312 310 310 310 311 310 309 310 310 310 310 308 311 312 314 313 314 316 316 317 317 317 317 319 320 320
300 310 311 308 306 306 309 314 313 314 316 315 315 318 318 316 316 314 312 312 311 310 309 310 311 310 310 309 308 309 308 310 315 317 316 315 317 315 318 322 323 321 318 317 318
303 310 310 306 307 309 311 313 313 316 317 316 314 319 317 317 314 313 312 311 312 309 311 311 312 311 310 309 309 311 310 310 313 314 314 314 315 318 321 321 323 321 317 317 321
307 310 309 309 308 310 313 314 315 316 317 315 315 320 317 316 314 313 314 313 315 312 309 310 311 311 310 310 310 310 310 313 313 318 319 317 324 318 324 322 322 321 317 322 332
307 309 307 309 309 309 311 312 314 314 314 314 312 320 320 320 314 314 314 314 315 313 312 311 311 314 310 310 309 312 314 311 311 313 316 317 318 318 322 321 322 318 320 328 336
305 310 306 308 309 308 310 310 310 315 314 315 315 319 321 323 320 314 314 314 314 309 311 311 310 312 315 315 309 309 312 313 314 317 317 317 317 322 321 321 322 319 323 329 333
303 306 304 306 309 309 309 309 312 315 315 314 317 319 319 322 323 320 315 314 312 310 311 311 310 312 316 316 317 314 313 312 313 317 322 318 318 323 323 322 322 318 323 327 331
303 300 302 303 304 306 309 311 313 312 315 316 315 317 320 320 321 322 322 321 312 311 313 314 313 313 316 316 317 323 319 317 316 316 320 319 322 325 325 323 323 321 320 324 328
301 299 301 304 304 305 308 311 312 314 312 314 317 318 320 320 320 321 321 319 319 319 315 311 311 321 323 323 322 322 320 319 320 318 319 321 323 322 324 324 324 317 317 322 323
300 301 302 302 305 306 308 309 310 311 312 314 316 316 317 319 321 322 322 320 320 319 318 314 320 321 324 323 323 320 319 319 321 322 325 323 325 323 325 325 323 316 315 315 315
300 301 302 303 304 305 307 309 310 310 311 312 314 316 318 319 318 320 320 320 320 322 318 317 317 316 323 323 321 323 320 320 318 316 322 324 322 325 324 323 322 317 316 315 315
Wind_Speed
18 18 16 16 16 15 17 17 17 17 18 17 12 16 17 19 23 22 28 26 18 15 14 21 26 22 13 12 11 7 3 4 6 6 4 1 2 3 3 5 6 4 7 17 15
19 19 19 18 17 17 15 17 16 18 18 17 15 16 17 19 24 29 25 25 23 19 23 22 27 23 8 9 10 5 5 8 5 4 2 3 0 1 3 7 8 19 19 21 22
19 19 19 20 20 19 17 17 18 17 16 17 16 14 15 18 24 24 11 6 19 25 23 20 18 23 10 9 8 7 6 5 4 5 1 4 3 1 5 1 9 22 30 26 24
17 18 19 20 21 20 21 20 18 17 16 17 16 12 12 14 7 9 5 4 8 29 26 23 18 18 6 6 8 5 6 8 4 1 3 3 5 2 1 3 12 24 32 30 24
17 17 20 21 22 21 21 23 22 19 18 18 14 10 12 12 26 14 22 20 17 33 32 25 24 15 8 7 6 3 4 6 6 1 5 3 3 2 6 8 19 21 25 27 25
18 18 19 21 22 22 23 23 25 22 20 17 12 10 15 14 14 8 9 6 9 33 32 24 18 17 12 9 5 8 5 3 3 2 1 2 2 2 6 10 20 23 22 22 19
21 20 20 21 22 22 24 23 23 25 21 16 11 12 20 31 9 6 3 2 10 30 31 23 11 18 15 5 15 5 3 4 5 5 4 6 2 5 14 12 14 14 17 17 14
23 23 23 22 22 23 22 24 24 22 20 14 12 13 18 20 14 17 25 15 11 20 20 21 10 17 6 11 6 6 2 7 5 9 4 5 2 5 15 16 16 12 9 9 14
22 23 24 24 23 23 24 25 25 23 21 12 10 14 14 13 15 12 20 14 18 25 13 19 8 6 6 8 5 6 6 4 1 11 4 4 4 8 15 14 14 15 14 11 8
26 25 24 24 25 26 25 27 22 13 9 10 13 7 19 13 5 9 19 14 18 23 12 6 7 4 2 6 17 12 13 5 8 6 3 4 4 4 20 17 13 14 15 13 10
30 29 27 26 28 26 27 28 4 2 13 15 14 15 5 7 4 7 24 22 19 14 5 7 4 12 8 4 3 8 10 6 4 2 5 6 5 5 15 11 11 13 8 8 8
33 33 30 27 27 30 26 11 10 5 10 25 31 27 21 4 7 7 29 12 8 7 5 4 7 6 8 6 2 5 8 5 1 5 3 5 6 7 8 11 19 16 14 11 11
36 36 33 29 28 27 11 12 5 4 6 14 28 29 16 20 10 10 32 18 10 7 5 6 5 10 7 4 4 2 7 6 4 4 3 6 4 5 5 6 11 14 16 13 15
40 39 35 29 22 11 18 9 9 8 4 5 7 8 13 11 7 19 35 18 4 7 8 5 4 13 9 7 6 4 5 5 8 5 4 3 4 5 6 8 6 14 17 16 18
42 39 41 26 23 21 13 6 3 8 4 7 7 6 19 18 16 15 31 11 9 7 7 6 8 12 8 7 8 5 6 6 3 4 4 1 3 6 3 7 9 11 17 18 20
45 45 35 26 14 13 7 10 6 4 6 1 5 9 12 9 3 18 27 15 12 6 4 5 6 9 8 10 11 6 6 6 5 3 1 6 5 4 5 6 5 12 22 22 19
47 36 19 15 6 2 17 8 4 4 8 8 4 9 11 7 5 19 12 10 6 6 4 3 4 4 11 9 4 6 7 2 1 1 5 4 4 7 6 3 5 9 11 10 17
45 18 22 17 3 9 17 3 2 4 6 4 8 6 7 5 15 15 18 12 8 5 4 5 3 8 6 9 8 6 8 5 4 4 2 4 5 6 2 2 5 8 13 10 22
35 26 35 17 11 13 1 2 3 4 7 3 12 10 4 5 9 13 13 15 7 7 6 4 2 3 9 5 8 4 5 8 6 3 4 3 5 5 4 5 11 13 8 18 28
24 13 31 19 3 1 2 4 4 9 13 4 0 5 4 5 7 7 10 9 6 9 4 5 6 7 4 7 2 9 6 4 3 4 3 4 3 5 3 5 8 8 9 15 26
18 7 27 18 9 6 3 4 6 13 13 3 3 4 4 3 5 8 9 4 11 6 5 2 4 1 6 6 8 3 3 5 5 4 5 1 5 5 6 3 7 10 8 19 29
13 4 20 11 6 3 4 10 9 8 9 3 7 3 2 3 3 3 7 4 15 7 7 3 4 3 4 0 5 7 9 7 5 4 0 4 6 3 5 6 6 6 12 21 28
9 7 13 18 4 5 7 6 7 9 7 7 6 7 4 4 3 2 2 3 18 8 9 6 1 3 5 5 4 4 4 5 6 3 5 6 5 2 3 3 7 3 18 26 32
7 5 10 12 7 6 5 6 12 18 5 5 2 4 3 4 4 2 3 4 16 8 19 10 3 6 5 6 4 4 4 4 6 4 5 6 4 4 2 4 9 12 16 25 31
11 3 7 5 7 10 11 8 11 10 9 8 4 4 4 4 3 3 4 5 7 4 4 5 5 3 2 2 3 2 8 8 6 5 7 7 9 8 9 8 9 17 21 24 22
8 7 8 8 13 11 8 6 13 12 6 8 5 9 9 3 3 3 2 4 1 5 3 3 2 3 5 3 4 5 6 9 4 4 1 6 2 3 10 17 12 26 25 30 27
14 13 6 8 9 8 7 10 13 17 9 9 7 11 6 6 5 3 3 2 3 2 3 4 6 3 3 2 2 4 4 5 5 5 4 3 2 6 5 12 12 24 29 30 29
Wind_Direction
329 329 326 324 326 318 314 313 309 307 306 305 288 286 289 294 293 283 268 266 273 244 252 206 203 199 185 186 180 172 89 207 188 155 204 59 66 188 62 102 66 90 153 156 148
326 326 325 326 327 324 315 308 302 305 305 306 297 285 286 295 296 282 271 269 256 246 223 203 201 194 194 190 182 152 154 208 200 194 138 48 174 264 121 109 90 97 126 142 145
319 320 319 319 320 320 318 313 310 302 300 299 299 283 287 294 307 277 230 245 236 210 214 207 190 184 186 186 180 171 187 189 247 219 347 47 9 45 102 120 185 158 148 152 154
310 314 312 312 312 311 313 308 303 298 295 291 294 287 284 288 269 191 187 357 302 192 193 199 180 173 157 181 182 145 212 177 231 64 11 69 333 17 90 92 152 157 150 153 160
307 307 307 307 307 308 307 307 309 304 297 288 286 285 277 255 252 255 279 280 301 186 189 189 174 166 157 163 132 148 186 191 205 235 357 45 323 171 96 113 147 151 152 156 163
301 305 300 303 305 305 305 304 303 307 301 291 281 271 261 254 274 255 276 265 267 192 185 186 188 172 153 184 160 183 193 209 207 189 253 48 318 121 177 117 149 157 152 152 157
338 323 311 305 305 301 299 294 295 300 302 288 270 258 258 245 245 231 166 124 201 189 183 179 173 176 163 127 201 95 168 311 206 224 223 153 153 229 174 155 133 141 164 176 183
327 326 324 318 308 309 307 304 294 294 298 283 263 245 255 262 259 247 244 243 207 167 188 177 157 176 169 144 124 141 100 213 208 148 228 131 214 239 190 161 143 137 148 167 168
325 321 317 315 314 312 308 301 302 292 276 257 242 242 263 265 255 232 220 215 184 168 116 190 179 153 142 126 94 192 193 202 134 178 134 155 210 214 199 202 158 157 174 189 208
324 319 316 314 312 311 311 305 312 287 243 188 224 243 256 255 263 222 191 171 158 172 179 141 178 127 90 159 191 182 190 173 180 185 96 137 204 136 187 195 178 162 167 184 208
329 322 317 314 312 313 313 315 280 242 184 198 195 210 276 266 213 202 170 154 140 145 143 179 142 194 165 154 117 122 150 115 159 170 123 180 195 185 195 201 204 166 188 194 211
335 330 323 315 307 309 301 261 246 283 276 249 240 237 236 228 321 175 156 138 129 145 134 95 219 178 139 145 182 113 147 172 58 189 153 138 214 248 166 194 192 203 193 202 201
334 332 329 322 315 305 274 247 183 267 268 266 238 227 213 236 236 190 166 145 148 134 152 139 201 158 143 163 158 75 129 154 139 144 61 117 307 248 261 215 192 206 216 207 201
335 333 330 325 316 282 286 282 272 228 270 258 196 241 186 190 229 188 177 146 143 160 154 177 165 157 161 172 134 138 189 139 129 108 194 160 251 244 242 257 227 225 221 217 200
338 334 329 314 283 277 296 163 93 154 286 137 151 163 157 171 139 182 179 183 149 140 123 229 144 159 157 179 139 192 169 164 144 123 122 145 133 262 211 244 256 257 234 221 207
340 337 328 314 283 303 235 219 199 242 241 128 126 156 152 216 213 150 174 194 147 118 155 187 168 154 186 153 168 158 112 47 54 97 215 214 144 268 194 199 231 244 253 248 206
341 344 356 341 319 303 159 170 209 272 341 347 357 157 185 168 143 149 154 183 149 114 142 148 172 190 138 139 133 126 94 64 27 207 216 168 116 231 259 217 243 271 280 245 215
344 17 14 5 154 131 152 212 329 288 8 76 329 222 205 125 153 162 161 186 230 109 126 149 165 155 174 158 158 162 144 150 157 139 200 165 226 248 216 146 320 297 262 235 194
350 24 23 21 148 147 48 36 249 346 355 12 320 182 203 156 138 152 167 186 192 205 132 139 205 132 160 133 134 177 139 188 97 24 73 226 309 319 350 333 0 333 248 205 191
2 36 19 14 196 158 336 311 319 358 325 42 56 265 130 139 119 145 164 191 180 201 141 192 114 153 176 100 71 152 164 91 11 111 175 275 259 235 312 323 323 309 246 206 183
17 64 22 21 35 25 29 296 309 342 54 13 301 302 34 58 108 148 184 177 178 190 112 118 91 50 111 166 156 86 123 62 115 128 165 169 266 215 207 260 279 284 226 187 175
22 42 7 22 38 46 331 312 296 331 346 224 221 269 16 24 90 119 174 193 179 141 145 203 119 117 177 7 170 159 166 140 125 217 12 151 261 224 231 269 262 217 183 179 173
4 348 6 24 30 359 329 315 322 327 335 24 334 8 351 23 87 67 164 191 166 143 159 184 48 50 11 3 27 138 146 119 111 89 191 142 256 166 268 43 29 150 167 168 173
23 14 354 23 353 337 333 341 341 339 1 327 270 333 347 19 12 76 56 21 176 168 175 131 119 147 165 199 144 132 145 151 129 119 181 209 183 250 187 79 50 48 150 159 161
25 40 5 325 344 334 351 339 342 349 351 323 340 304 344 349 16 48 22 357 52 48 75 113 144 95 37 114 112 149 141 160 164 183 150 206 182 187 187 169 104 72 107 128 135
26 352 339 286 325 336 4 344 343 339 303 331 342 343 331 299 58 60 19 29 120 345 86 21 113 92 33 7 13 74 104 114 96 122 349 116 152 98 109 108 96 90 89 96 110
359 352 313 298 337 353 342 338 321 327 300 323 324 299 272 295 240 158 87 166 171 120 114 104 126 92 161 22 124 58 271 120 98 64 121 178 213 138 104 92 96 105 106 105 108